TimeCDT,TemperatureF,Dew PointF,Humidity,Sea Level PressureIn,VisibilityMPH,Wind Direction,Wind SpeedMPH,Gust SpeedMPH,PrecipitationIn,Events,Conditions,WindDirDegrees,DateUTC
12:54 AM,80.1,66.0,62,29.89,10.0,South,9.2,-,N/A,,Clear,190,2013-07-20 05:54:00
1:54 AM,81.0,64.9,58,29.89,10.0,South,10.4,-,N/A,,Clear,190,2013-07-20 06:54:00
2:54 AM,79.0,66.0,64,29.88,10.0,South,8.1,-,N/A,,Clear,190,2013-07-20 07:54:00
3:54 AM,78.1,66.0,66,29.89,10.0,SSW,10.4,-,N/A,,Clear,200,2013-07-20 08:54:00
4:54 AM,79.0,66.9,66,29.88,10.0,SSW,13.8,-,N/A,,Overcast,210,2013-07-20 09:54:00
5:54 AM,75.9,66.9,74,29.88,10.0,SSW,10.4,-,N/A,,Clear,210,2013-07-20 10:54:00
6:54 AM,75.9,68.0,76,29.88,10.0,SSW,6.9,-,N/A,,Clear,210,2013-07-20 11:54:00
7:54 AM,77.0,68.0,74,29.88,10.0,South,6.9,-,N/A,,Clear,190,2013-07-20 12:54:00
8:54 AM,81.0,69.1,67,29.89,10.0,SSW,6.9,-,N/A,,Clear,200,2013-07-20 13:54:00
9:54 AM,84.9,69.1,59,29.89,10.0,SW,9.2,-,N/A,,Clear,230,2013-07-20 14:54:00
10:54 AM,88.0,70.0,55,29.88,10.0,South,8.1,-,N/A,,Clear,190,2013-07-20 15:54:00
11:54 AM,91.9,69.1,47,29.87,10.0,SSW,11.5,-,N/A,,Clear,200,2013-07-20 16:54:00
12:54 PM,93.0,66.0,41,29.86,10.0,WSW,11.5,-,N/A,,Partly Cloudy,240,2013-07-20 17:54:00
1:54 PM,96.1,64.0,35,29.83,10.0,South,17.3,20.7,N/A,,Clear,170,2013-07-20 18:54:00
2:54 PM,97.0,62.1,31,29.81,10.0,South,13.8,24.2,N/A,,Clear,180,2013-07-20 19:54:00
3:54 PM,96.1,63.0,33,29.78,10.0,South,18.4,26.5,N/A,,Partly Cloudy,180,2013-07-20 20:54:00
4:54 PM,95.0,63.0,34,29.79,10.0,South,12.7,21.9,N/A,,Clear,190,2013-07-20 21:54:00
5:32 PM,93.2,62.6,36,29.83,10.0,South,16.1,21.9,N/A,Thunderstorm,Partly Cloudy,190,2013-07-20 22:32:00
5:50 PM,91.4,62.6,38,29.83,10.0,South,12.7,-,N/A,,Clear,190,2013-07-20 22:50:00
5:54 PM,91.9,63.0,38,29.78,10.0,South,16.1,-,N/A,,Clear,190,2013-07-20 22:54:00
6:07 PM,86.0,66.2,51,29.86,10.0,WNW,21.9,34.5,N/A,Thunderstorm,Scattered Clouds,290,2013-07-20 23:07:00
6:19 PM,80.6,68.0,65,29.87,10.0,WNW,29.9,41.4,N/A,Thunderstorm,Thunderstorm,300,2013-07-20 23:19:00
6:54 PM,72.0,70.0,93,29.86,10.0,NW,20.7,27.6,N/A,Rain-Thunderstorm,Light Thunderstorms and Rain,310,2013-07-20 23:54:00
7:08 PM,71.6,71.6,100,29.88,4.0,NNW,16.1,-,N/A,Rain-Thunderstorm,Heavy Rain,340,2013-07-21 00:08:00
7:26 PM,71.6,71.6,100,29.88,9.0,North,17.3,-,N/A,Rain-Thunderstorm,Light Rain,360,2013-07-21 00:26:00
7:42 PM,71.6,71.6,100,29.90,9.0,NNE,17.3,-,N/A,Rain-Thunderstorm,Rain,20,2013-07-21 00:42:00
7:54 PM,72.0,72.0,100,29.86,10.0,NNE,18.4,25.3,N/A,Rain-Thunderstorm,Light Rain,30,2013-07-21 00:54:00
8:03 PM,71.6,-9999,N/A,29.89,10.0,NNE,18.4,26.5,0.00,Rain,Light Rain,30,2013-07-21 01:03:00
8:54 PM,70.0,70.0,100,29.88,10.0,ENE,13.8,-,0.03,Rain,Light Rain,60,2013-07-21 01:54:00
9:54 PM,70.0,70.0,100,29.87,10.0,East,10.4,-,0.06,,Mostly Cloudy,80,2013-07-21 02:54:00
10:54 PM,71.1,69.1,93,29.88,10.0,SE,11.5,20.7,N/A,,Partly Cloudy,130,2013-07-21 03:54:00
11:54 PM,71.1,69.1,93,29.87,10.0,ESE,11.5,18.4,0.00,Rain,Light Rain,110,2013-07-21 04:54:00